Location: Izdebno
(52.6670°N, 16.2170°E)
Time: 02:47:25
(UTC+02:00)

Transit 4A - Pass Details

Date: 01 March 2024
Orbit: 871 x 972 km, 66.8° (Epoch: 22 April)

Event Time Altitude Azimuth Distance (km) Brightness Sun altitude
Rises 00:20:25 0° 204° (SSW) 3,595 - -44.7°
Reaches altitude 10° 00:22:59 10° 202° (SSW) 2,640 - -44.7°
Maximum altitude 00:29:02 63° 123° (ESE) 1,021 - -44.6°
Exits shadow 00:34:23 13° 44° (NE) 2,378 10.4 -44.5°
Drops below altitude 10° 00:34:57 10° 43° (NE) 2,586 10.7 -44.5°
Sets 00:37:27 0° 41° (NE) 3,516 11.5 -44.4°
